Pamplona/Noain, Spain

10:44 PM CET on January 24, 2017 (GMT +0100)
Pamplona

Weather History for LEPP - October, 2012

Change the Weather History Date:

Monday, October 22, 2012

  Actual Average Record
Temperature  
Mean Temperature 58 °F -  
Max Temperature 66 °F 55 °F 73 °F (1996)
Min Temperature 51 °F 42 °F 15 °F (2016)
Degree Days  
Heating Degree Days 6    
Growing Degree Days 8 (Base 50)    
Moisture  
Dew Point 54 °F    
Average Humidity 87    
Maximum Humidity 100    
Minimum Humidity 64    
Precipitation  
Precipitation 0.00 in - - ()
Sea Level Pressure  
Sea Level Pressure 30.09 in    
Wind  
Wind Speed 1 mph ()    
Max Wind Speed 2 mph    
Max Gust Speed -    
Visibility 4.8 miles    
Events Fog    
Averages and records for this station are not official NWS values.
T = Trace of Precipitation, MM = Missing Value Source: Averaged Metar Reports

Daily Weather History Graph

Daily Weather History Graph

Search for Another Location

Airport or City:

Trip Planner

Search our weather history database for the weather conditions in past years. The results will help you decide how hot, cold, wet, or windy it might be!

Date:

Astronomy

Oct. 22, 2012 Rise Set
Actual Time 8:28 AM CEST 7:12 PM CEST
Civil Twilight 7:59 AM CEST 7:41 PM CEST
Nautical Twilight 7:26 AM CEST 8:14 PM CEST
Astronomical Twilight 6:53 AM CEST 8:47 PM CEST
Moon 3:20 PM CEST (10/22) 12:49 AM CEST (10/22)
Length of Visible Light 11h 41m
Length of Day
10h 44m
First Quarter, 53% of the Moon is Illuminated
Oct 22
First Quarter
Oct 29
Full
Nov 7
Last Quarter
Nov 13
New
Nov 20
First Quarter

Hourly Weather History & Observations

Time (CEST) Temp. Dew Point Humidity Pressure Visibility Wind Dir Wind Speed Gust Speed Precip Events Conditions
12:00 AM 55.4 °F 53.6 °F 94% 30.01 in 5.6 mi SSW 1.2 mph - N/A   Scattered Clouds
5:30 AM 51.8 °F 51.8 °F 100% 30.04 in 0.1 mi Variable 2.3 mph - N/A Fog Fog
6:22 AM 51.8 °F 51.8 °F 100% 30.04 in 1.9 mi Calm Calm - N/A   Mostly Cloudy
6:30 AM 51.8 °F 51.8 °F 100% 30.04 in 2.5 mi Calm Calm - N/A Fog Patches of Fog
7:00 AM 51.8 °F 51.8 °F 100% 30.06 in 2.5 mi SE 1.2 mph - N/A   Partly Cloudy
7:11 AM 51.8 °F 51.8 °F 100% 30.06 in 1.9 mi Variable 2.3 mph - N/A Fog Fog
7:30 AM 51.8 °F 51.8 °F 100% 30.06 in 5.6 mi Calm Calm - N/A   Partly Cloudy
8:30 AM 53.6 °F 53.6 °F 100% 30.06 in 5.0 mi Variable 1.2 mph - N/A   Scattered Clouds
9:00 AM 53.6 °F 53.6 °F 100% 30.09 in 3.1 mi Calm Calm - N/A   Mostly Cloudy
11:00 AM 57.2 °F 57.2 °F 100% 30.09 in 6.2 mi Calm Calm - N/A   Scattered Clouds
12:30 PM 60.8 °F 57.2 °F 88% 30.12 in 6.2 mi Calm Calm - N/A   Scattered Clouds
1:00 PM 62.6 °F 57.2 °F 82% 30.12 in 6.2 mi Calm Calm - N/A   Scattered Clouds
2:30 PM 64.4 °F 55.4 °F 73% 30.09 in 6.2 mi Variable 1.2 mph - N/A   Scattered Clouds
4:30 PM 66.2 °F 55.4 °F 68% 30.09 in 6.2 mi Variable 2.3 mph - N/A   Scattered Clouds
5:00 PM 66.2 °F 53.6 °F 64% 30.09 in 6.2 mi Variable 1.2 mph - N/A   Scattered Clouds
5:30 PM 66.2 °F 55.4 °F 68% 30.09 in 6.2 mi Calm Calm - N/A   Scattered Clouds
6:00 PM 66.2 °F 53.6 °F 64% 30.09 in 6.2 mi Calm Calm - N/A   Partly Cloudy
6:30 PM 66.2 °F 53.6 °F 64% 30.09 in 6.2 mi West 1.2 mph - N/A   Partly Cloudy
7:00 PM 64.4 °F 53.6 °F 68% 30.09 in 6.2 mi West 1.2 mph - N/A   Partly Cloudy
7:30 PM 60.8 °F 55.4 °F 82% 30.09 in 6.2 mi Calm Calm - N/A   Partly Cloudy
8:00 PM 60.8 °F 53.6 °F 77% 30.09 in - Calm Calm - N/A   Clear
8:30 PM 59.0 °F 53.6 °F 82% 30.09 in - Variable 1.2 mph - N/A   Clear
9:00 PM 57.2 °F 53.6 °F 88% 30.12 in - ENE 2.3 mph - N/A   Clear
9:30 PM 57.2 °F 53.6 °F 88% 30.12 in - Calm Calm - N/A   Clear
10:00 PM 55.4 °F 53.6 °F 94% 30.12 in - South 1.2 mph - N/A   Clear
10:30 PM 55.4 °F 53.6 °F 94% 30.12 in - Calm Calm - N/A   Clear
11:00 PM 55.4 °F 53.6 °F 94% 30.15 in - South 1.2 mph - N/A   Clear
11:30 PM 55.4 °F 53.6 °F 94% 30.15 in - Calm Calm - N/A   Clear